VINASAT-2

Last updated on Fri Dec 19 2025 00:02:50 GMT+0000 (Coordinated Universal Time)

1 38332U 12023B 25352.58012810 -.00000304 00000+0 00000+0 0 9995 2 38332 0.0132 343.7406 0002270 292.0869 152.2966 1.00270422 44840
UTC large
Height (km)
Speed (km/s)
/
Latitude / Longitude
Inclination (degrees)
Orbital Period (minutes)
Azimuth
Elevation
Range (km)
Doppler Factor

Next 0 passes for location: London (51.5072 / 0.1276)

Sorry there are no passes over London.